DW9584 Weather Reports


time (UTC)temp
C
wind
direction
speed
KPH
gust
KPH
rain 1hr
cm
rain 24hr
cm
rain mn
cm
humidity
%
barometer
mb
20260505124514 17 238 3.2 8.0 0.00 0.00 0.00 63 1012.1
20260505123008 17 255 1.6 8.0 0.00 0.00 0.00 65 1011.9
20260505121507 16 181 3.2 6.4 0.00 0.00 0.00 69 1011.9
20260505120016 16 162 0.0 4.8 0.00 0.00 0.00 72 1011.9
20260505114520 15 229 0.0 3.2 0.00 0.00 0.00 76 1011.8
20260505113019 14 193 0.0 3.2 0.00 0.00 0.00 80 1011.8
20260505111519 13 206 0.0 3.2 0.00 0.00 0.00 85 1011.6
20260505101520 13 248 0.0 0.0 0.00 0.00 0.00 83 1011.3
20260505100029 13 248 0.0 3.2 0.00 0.00 0.00 82 1011.1
20260505094522 13 250 0.0 0.0 0.00 0.00 0.00 82 1011.0
20260505093022 13 250 0.0 0.0 0.00 0.00 0.00 82 1010.9
20260505091529 13 250 0.0 3.2 0.00 0.00 0.00 82 1011.0
20260505090036 13 193 0.0 3.2 0.00 0.00 0.00 83 1011.0
20260505084515 13 236 0.0 1.6 0.00 0.00 0.00 84 1010.8
20260505083013 13 234 0.0 3.2 0.00 0.00 0.00 83 1010.9
20260505081535 14 203 0.0 3.2 0.00 0.00 0.00 81 1010.9
20260505080044 14 220 0.0 1.6 0.00 0.00 0.00 79 1010.8
20260505074528 13 209 0.0 3.2 0.00 0.00 0.00 80 1010.9
20260505073022 13 240 0.0 3.2 0.00 0.00 0.00 79 1010.9
20260505071526 14 282 0.0 3.2 0.00 0.00 0.00 78 1010.9
20260505070022 13 229 0.0 3.2 0.00 0.00 0.00 78 1010.8
20260505064517 13 195 0.0 0.0 0.00 0.00 0.00 78 1010.8
20260505063023 13 195 0.0 3.2 0.00 0.00 0.00 78 1010.8
20260505061516 13 195 0.0 3.2 0.00 0.00 0.00 76 1010.9
20260505060016 13 199 0.0 3.2 0.00 0.00 0.00 75 1011.0
20260505054509 13 199 0.0 0.0 0.00 0.00 0.00 75 1011.0
20260505053013 13 199 0.0 3.2 0.00 0.00 0.00 74 1011.0
20260505051504 13 101 0.0 0.0 0.00 0.00 0.00 72 1011.1
20260505041531 14 359 0.0 3.2 0.00 0.00 0.00 67 1011.0
20260505040012 14 7 0.0 0.0 0.00 0.00 0.00 65 1011.0
20260505034510 14 7 0.0 0.0 0.00 0.00 0.00 65 1011.1
20260505033007 14 7 0.0 0.0 0.00 0.00 0.00 63 1011.1
20260505031527 14 345 0.0 3.2 0.00 0.00 0.00 63 1011.1
20260505030024 13 79 0.0 0.0 0.00 0.00 0.00 63 1010.9
20260505024525 13 79 0.0 0.0 0.00 0.00 0.00 66 1011.2
20260505023021 13 79 0.0 0.0 0.00 0.00 0.00 67 1011.3
20260505021516 14 79 0.0 0.0 0.00 0.00 0.00 65 1011.3
20260505020017 14 79 0.0 0.0 0.00 0.00 0.00 63 1011.2
20260505014512 15 79 0.0 0.0 0.00 0.00 0.00 61 1011.0
20260505013027 15 79 0.0 0.0 0.00 0.00 0.00 58 1011.0
20260505011531 16 79 0.0 0.0 0.00 0.00 0.00 55 1011.0
20260505010027 17 79 0.0 1.6 0.00 0.00 0.00 52 1010.8
20260505004533 17 79 0.0 3.2 0.00 0.00 0.00 49 1010.7
20260505003021 17 82 0.0 3.2 0.00 0.00 0.00 47 1010.5
20260505001518 18 73 0.0 3.2 0.00 0.00 0.00 44 1010.4
20260505000027 19 221 0.0 3.2 0.00 0.00 0.00 44 1010.2
20260504234516 20 243 0.0 4.8 0.00 0.00 0.00 41 1010.1
20260504233027 20 170 1.6 4.8 0.00 0.00 0.00 41 1010.1
20260504231528 20 195 1.6 6.4 0.00 0.00 0.00 39 1010.1
20260504230028 20 152 0.0 8.0 0.00 0.00 0.00 39 1010.0
20260504224528 21 243 1.6 8.0 0.00 0.00 0.00 38 1010.0
20260504223023 21 229 1.6 19.3 0.00 0.00 0.00 37 1010.1
20260504221522 21 248 1.6 6.4 0.00 0.00 0.00 39 1010.1
20260504220018 21 290 1.6 19.3 0.00 0.00 0.00 36 1010.2
20260504214527 22 193 3.2 12.9 0.00 0.00 0.00 35 1010.2
20260504213047 21 123 1.6 8.0 0.00 0.00 0.00 37 1010.2
20260504211516 21 224 1.6 8.0 0.00 0.00 0.00 35 1010.2
20260504210011 22 162 1.6 9.7 0.00 0.00 0.00 36 1010.2
20260504204508 22 253 3.2 12.9 0.00 0.00 0.00 36 1010.3
20260504203008 22 53 1.6 9.7 0.00 0.00 0.00 34 1010.5
20260504201531 22 190 3.2 16.1 0.00 0.00 0.00 35 1010.6
20260504200024 21 165 3.2 11.3 0.00 0.00 0.00 35 1010.8
20260504194521 22 219 3.2 12.9 0.00 0.00 0.00 34 1010.8
20260504193016 21 218 0.0 9.7 0.00 0.00 0.00 36 1010.9
20260504191518 21 174 3.2 14.5 0.00 0.00 0.00 37 1011.0
20260504190013 21 157 3.2 11.3 0.00 0.00 0.00 35 1011.1
20260504184511 21 167 3.2 22.5 0.00 0.00 0.00 33 1011.4
20260504183028 21 128 1.6 14.5 0.00 0.00 0.00 34 1011.5
20260504181527 21 159 3.2 19.3 0.00 0.00 0.00 36 1011.8
20260504180024 21 179 3.2 9.7 0.00 0.00 0.00 35 1011.9
20260504174522 21 281 0.0 11.3 0.00 0.00 0.00 38 1012.1
20260504173031 21 293 3.2 14.5 0.00 0.00 0.00 33 1012.4
20260504171522 21 232 1.6 9.7 0.00 0.00 0.00 32 1012.6